�N����,����,�~����,�C��,���x,�C��,����,���ϕ���,�ő�u�ԕ���,�ő厞����,���˗�,�I�_���x,�n�����x,�ő啗���N��,DTYPE
"18/05/19","00:10",0.2,21.8,94.0,998.6,327.4,1.6,5.2,337.1,0.00,20.8,21.1,"00:05:44",1
"18/05/19","00:20",0.2,21.9,94.0,998.6,300.1,1.2,2.4,340.5,0.00,20.9,21.1,"00:18:04",1
"18/05/19","00:30",0.0,21.9,94.1,998.6,304.7,1.0,2.7,331.6,0.00,20.9,21.0,"00:29:20",1
"18/05/19","00:40",0.2,22.0,94.0,998.6,283.3,0.8,1.7,231.4,0.00,21.0,21.1,"00:33:52",1
"18/05/19","00:50",0.0,22.0,93.9,998.4,281.2,1.1,2.2,258.7,0.00,21.0,21.1,"00:46:32",1
"18/05/19","01:00",0.0,22.0,93.7,998.6,287.8,1.5,5.6,0.1,0.00,21.0,20.9,"00:57:12",1
"18/05/19","01:10",0.0,21.8,93.5,998.6,286.8,1.1,3.1,350.8,0.00,20.7,21.0,"01:05:20",1
"18/05/19","01:20",0.2,21.5,93.1,998.6,322.4,1.2,2.6,324.4,0.00,20.4,21.0,"01:18:08",1
"18/05/19","01:30",0.0,20.5,93.2,999.1,339.9,2.1,5.4,348.3,0.00,19.4,20.9,"01:23:44",1
"18/05/19","01:40",0.0,19.9,92.5,999.1,355.2,1.8,3.9,309.1,0.00,18.7,21.0,"01:36:08",1
"18/05/19","01:50",0.0,19.0,92.1,999.3,354.9,2.6,8.2,326.9,0.00,17.7,20.8,"01:48:00",1
"18/05/19","02:00",0.0,18.5,91.7,999.6,345.7,2.8,6.8,338.9,0.00,17.2,20.7,"01:58:24",1
"18/05/19","02:10",0.6,18.0,91.4,999.8,346.5,3.2,6.5,335.6,0.00,16.6,20.7,"02:07:06",1
"18/05/19","02:20",1.0,17.5,91.5,1000.0,344.9,3.4,5.9,345.6,0.00,16.1,20.5,"02:17:20",1
"18/05/19","02:30",0.0,17.3,91.1,1000.0,346.6,3.6,7.2,328.8,0.00,15.9,20.7,"02:24:02",1
"18/05/19","02:40",0.0,17.3,90.8,1000.0,337.4,3.1,7.0,318.8,0.00,15.8,20.5,"02:30:24",1
"18/05/19","02:50",0.0,17.2,90.4,1000.0,337.0,3.1,7.5,321.5,0.00,15.7,20.4,"02:49:04",1
"18/05/19","03:00",0.0,17.2,89.7,1000.3,334.5,3.4,7.4,329.6,0.00,15.5,20.3,"02:56:16",1
"18/05/19","03:10",0.0,17.1,89.4,1001.0,339.0,2.8,6.0,306.9,0.00,15.4,20.2,"03:01:28",1
"18/05/19","03:20",0.0,17.0,88.7,1001.0,338.9,2.3,5.0,333.0,0.00,15.2,20.2,"03:11:20",1
"18/05/19","03:30",0.0,17.1,87.3,1001.2,341.3,3.7,7.5,327.6,0.00,15.0,20.1,"03:24:48",1
"18/05/19","03:40",0.0,17.3,85.8,1001.7,332.8,3.7,7.1,335.1,0.00,14.9,20.1,"03:39:52",1
"18/05/19","03:50",0.0,16.9,86.2,1001.7,347.2,3.1,6.2,347.7,0.00,14.6,20.1,"03:45:28",1
"18/05/19","04:00",0.0,16.9,86.6,1001.7,335.1,3.1,7.1,341.0,0.00,14.7,19.7,"03:54:48",1
"18/05/19","04:10",0.0,16.8,86.3,1001.7,339.6,2.5,4.9,43.8,0.00,14.5,19.7,"04:02:56",1
"18/05/19","04:20",0.0,16.7,85.9,1001.5,328.3,2.7,6.4,314.6,0.00,14.4,19.6,"04:19:44",1
"18/05/19","04:30",0.0,16.6,85.0,1002.2,333.1,3.5,8.2,341.6,0.00,14.1,19.7,"04:23:28",1
"18/05/19","04:40",0.0,16.5,84.2,1002.4,340.0,3.0,5.6,332.6,0.00,13.9,19.7,"04:36:56",1
"18/05/19","04:50",0.0,16.5,83.9,1002.9,337.0,2.7,5.8,328.3,0.00,13.8,19.5,"04:44:40",1
"18/05/19","05:00",0.0,16.4,83.7,1002.9,336.0,2.8,6.0,342.9,0.00,13.7,19.6,"04:55:28",1
"18/05/19","05:10",0.0,16.5,83.3,1002.9,343.4,2.3,4.9,340.3,0.00,13.7,19.3,"05:05:28",1
"18/05/19","05:20",0.0,16.5,82.5,1003.1,336.0,2.6,4.5,340.0,0.00,13.6,19.4,"05:15:12",1
"18/05/19","05:30",0.0,16.4,83.1,1003.1,342.7,1.8,4.5,349.4,0.00,13.6,19.3,"05:20:48",1
"18/05/19","05:40",0.0,16.4,83.6,1003.1,338.7,2.0,4.2,333.3,0.00,13.7,19.2,"05:33:52",1
"18/05/19","05:50",0.0,16.4,83.9,1003.1,346.9,1.7,3.2,358.4,0.00,13.7,19.2,"05:48:16",1
"18/05/19","06:00",0.0,16.4,84.0,1003.8,332.6,1.6,2.5,315.0,0.00,13.7,19.3,"05:51:44",1
"18/05/19","06:10",0.0,16.3,83.9,1003.6,345.0,1.7,3.7,331.9,0.00,13.6,19.3,"06:00:32",1
"18/05/19","06:20",0.0,16.4,82.8,1003.8,350.8,2.0,3.9,331.9,0.01,13.5,19.3,"06:11:04",1
"18/05/19","06:30",0.0,16.3,82.2,1003.8,332.5,2.0,4.9,28.0,0.00,13.3,19.1,"06:20:16",1
"18/05/19","06:40",0.0,16.2,82.0,1004.1,342.2,2.1,4.5,319.7,0.01,13.2,19.2,"06:33:36",1
"18/05/19","06:50",0.0,16.1,81.6,1004.3,343.8,2.2,5.2,342.4,0.01,13.0,19.1,"06:49:44",1
"18/05/19","07:00",0.0,16.1,81.6,1004.8,345.4,2.1,4.3,326.7,0.01,13.0,19.0,"06:59:44",1
"18/05/19","07:10",0.0,15.9,81.9,1004.8,338.3,2.2,4.8,319.4,0.01,12.9,19.0,"07:08:40",1
"18/05/19","07:20",0.0,16.0,81.8,1004.8,343.4,2.5,6.2,23.3,0.03,12.9,19.0,"07:11:36",1
"18/05/19","07:30",0.0,16.1,80.9,1004.5,344.2,3.1,6.5,322.1,0.07,12.9,18.9,"07:20:02",1
"18/05/19","07:40",0.0,16.5,79.6,1005.0,337.2,2.6,6.5,340.8,0.13,13.0,19.0,"07:30:16",1
"18/05/19","07:50",0.0,16.5,78.5,1005.5,338.7,2.7,6.0,347.6,0.16,12.8,19.2,"07:48:00",1
"18/05/19","08:00",0.0,17.3,78.7,1005.5,333.0,2.6,5.4,323.6,0.21,13.6,19.0,"07:52:00",1
"18/05/19","08:10",0.0,16.7,76.5,1005.2,323.9,3.1,7.3,339.9,0.25,12.6,19.2,"08:07:28",1
"18/05/19","08:20",0.0,17.1,77.5,1005.2,337.3,2.7,6.7,335.9,0.25,13.2,19.3,"08:12:00",1
"18/05/19","08:30",0.0,16.8,75.9,1005.2,342.9,3.0,5.0,24.6,0.31,12.6,19.2,"08:28:16",1
"18/05/19","08:40",0.0,17.4,75.3,1005.7,357.0,2.7,6.4,339.5,0.37,13.0,19.2,"08:31:44",1
"18/05/19","08:50",0.0,16.2,75.8,1006.0,327.9,3.1,7.3,340.5,0.22,12.0,19.4,"08:48:40",1
"18/05/19","09:00",0.0,16.1,76.2,1006.0,329.0,3.2,7.4,319.6,0.15,12.0,19.3,"08:56:00",1
"18/05/19","09:10",0.0,17.0,73.3,1005.7,353.8,2.2,4.5,12.4,0.32,12.2,19.5,"09:05:16",1
"18/05/19","09:20",0.0,16.9,73.1,1006.0,2.0,2.5,4.8,359.3,0.37,12.1,19.6,"09:15:52",1
"18/05/19","09:30",0.0,17.0,74.9,1006.2,356.1,2.5,4.4,344.7,0.37,12.6,19.7,"09:22:56",1
"18/05/19","09:40",0.0,17.0,75.0,1005.7,1.8,3.0,5.8,345.8,0.43,12.6,19.5,"09:37:06",1
"18/05/19","09:50",0.0,16.9,74.5,1005.7,355.0,3.2,7.3,8.5,0.49,12.4,20.0,"09:42:32",1
"18/05/19","10:00",0.0,16.4,76.3,1006.0,350.9,3.0,5.5,37.1,0.28,12.3,20.0,"09:51:36",1
"18/05/19","10:10",0.0,16.1,76.0,1006.0,354.7,2.0,3.9,12.2,0.20,11.9,20.1,"10:05:20",1
"18/05/19","10:20",0.2,16.8,76.0,1006.2,344.8,3.1,8.5,349.5,0.39,12.6,20.2,"10:14:32",1
"18/05/19","10:30",0.0,17.4,72.9,1006.2,321.8,3.0,7.0,326.8,0.49,12.5,20.2,"10:20:56",1
"18/05/19","10:40",0.0,16.6,71.4,1006.2,344.0,2.7,7.3,357.9,0.35,11.4,20.3,"10:38:40",1
"18/05/19","10:50",0.0,16.5,73.1,1006.4,344.3,2.6,6.3,341.2,0.28,11.7,20.2,"10:47:20",1
"18/05/19","11:00",0.0,17.1,73.0,1006.2,347.9,2.5,5.7,350.3,0.32,12.3,20.4,"10:54:08",1
"18/05/19","11:10",0.0,17.2,71.3,1006.2,347.7,2.5,6.5,3.2,0.40,12.0,20.4,"11:00:24",1
"18/05/19","11:20",0.0,17.4,70.5,1006.2,336.9,2.8,6.3,346.2,0.44,12.0,20.6,"11:11:20",1
"18/05/19","11:30",0.0,18.1,69.1,1006.4,354.2,3.0,6.3,3.7,0.53,12.4,20.7,"11:29:44",1
"18/05/19","11:40",0.0,18.1,68.3,1006.7,347.4,3.4,7.2,348.0,0.56,12.2,20.9,"11:33:44",1
"18/05/19","11:50",0.0,17.7,68.4,1006.7,339.5,3.7,9.5,349.8,0.59,11.9,20.8,"11:40:08",1
"18/05/19","12:00",0.0,17.0,67.8,1006.4,332.9,4.6,9.1,334.0,0.49,11.1,21.0,"11:54:32",1
"18/05/19","12:10",0.0,18.4,66.4,1006.4,332.3,3.7,8.6,331.1,0.60,12.1,21.2,"12:07:52",1
"18/05/19","12:20",0.0,17.2,65.2,1006.9,359.9,2.8,6.5,37.3,0.34,10.7,21.1,"12:14:00",1
"18/05/19","12:30",0.0,16.7,69.4,1006.9,331.0,3.0,6.3,330.1,0.23,11.1,21.2,"12:25:36",1
"18/05/19","12:40",0.0,17.6,67.2,1007.1,333.3,3.4,7.0,330.6,0.47,11.5,21.4,"12:31:36",1
"18/05/19","12:50",0.0,17.6,64.4,1006.9,325.4,3.7,9.1,342.8,0.59,10.9,21.4,"12:42:48",1
"18/05/19","13:00",0.0,17.0,66.6,1007.1,334.9,3.6,8.5,337.3,0.37,10.8,21.4,"12:59:20",1
"18/05/19","13:10",0.0,17.5,65.9,1006.9,334.9,3.9,7.5,317.8,0.39,11.1,21.2,"13:01:20",1
"18/05/19","13:20",0.0,16.3,68.8,1007.1,333.3,4.2,8.8,346.9,0.25,10.6,21.3,"13:17:28",1
"18/05/19","13:30",0.0,16.3,70.6,1007.1,345.9,3.4,7.7,320.6,0.21,11.0,21.3,"13:21:28",1
"18/05/19","13:40",0.0,16.4,69.2,1007.1,343.0,3.6,8.1,32.3,0.38,10.8,21.2,"13:38:32",1
"18/05/19","13:50",0.0,16.5,68.9,1007.1,336.2,2.8,5.7,333.4,0.30,10.8,21.3,"13:49:52",1
"18/05/19","14:00",0.0,16.2,68.3,1007.1,332.6,2.3,6.2,335.0,0.22,10.4,21.0,"13:59:04",1
"18/05/19","14:10",0.0,16.4,69.0,1007.6,338.4,2.8,6.3,319.8,0.21,10.7,21.2,"14:06:08",1
"18/05/19","14:20",0.0,15.5,70.8,1007.6,338.1,3.4,9.8,335.7,0.14,10.3,21.2,"14:16:24",1
"18/05/19","14:30",0.0,15.4,72.8,1007.4,348.3,3.4,7.1,29.4,0.13,10.6,21.0,"14:23:04",1
"18/05/19","14:40",0.0,15.3,72.7,1007.8,336.2,3.1,5.8,303.1,0.13,10.5,20.8,"14:38:42",1
"18/05/19","14:50",0.0,15.2,71.9,1007.6,347.1,3.0,6.0,352.1,0.13,10.2,20.9,"14:44:56",1
"18/05/19","15:00",0.0,15.4,70.0,1007.8,330.8,3.6,7.3,318.4,0.16,10.0,20.9,"14:57:54",1
"18/05/19","15:10",0.0,15.0,70.3,1007.8,331.4,3.6,6.6,347.0,0.13,9.7,20.7,"15:05:54",1
"18/05/19","15:20",0.0,15.3,71.9,1007.8,325.8,3.0,7.0,333.9,0.12,10.3,20.4,"15:12:08",1
"18/05/19","15:30",0.0,15.1,71.5,1007.8,328.7,2.5,5.0,318.3,0.12,10.0,20.6,"15:29:28",1
"18/05/19","15:40",0.0,15.0,71.4,1007.6,329.1,3.6,7.4,327.2,0.10,9.9,20.4,"15:31:28",1
"18/05/19","15:50",0.0,15.0,69.9,1008.3,332.8,3.9,8.5,329.4,0.08,9.6,20.4,"15:47:44",1
"18/05/19","16:00",0.0,14.9,72.2,1008.1,336.7,2.7,4.7,355.6,0.08,10.0,20.3,"15:50:32",1
"18/05/19","16:10",0.0,14.8,70.9,1008.1,331.9,3.1,6.5,326.8,0.07,9.6,20.2,"16:07:12",1
"18/05/19","16:20",0.0,14.7,71.9,1008.3,337.4,2.8,5.6,313.3,0.08,9.7,20.2,"16:10:32",1
"18/05/19","16:30",0.0,14.7,71.2,1007.8,322.3,3.0,5.6,322.2,0.06,9.6,20.1,"16:25:12",1
"18/05/19","16:40",0.0,14.4,72.1,1008.3,335.8,3.0,6.3,309.4,0.04,9.5,19.9,"16:30:08",1
"18/05/19","16:50",0.0,14.2,73.1,1008.6,324.9,2.8,5.0,337.4,0.03,9.5,20.0,"16:43:28",1
"18/05/19","17:00",0.0,14.3,73.7,1008.3,332.9,2.6,6.4,339.0,0.04,9.7,19.8,"16:52:16",1
"18/05/19","17:10",0.0,14.3,74.2,1008.6,328.3,2.7,6.2,321.6,0.05,9.8,19.8,"17:04:16",1
"18/05/19","17:20",0.0,14.1,73.1,1008.6,331.0,3.2,7.4,334.0,0.04,9.4,19.8,"17:18:48",1
"18/05/19","17:30",0.0,14.1,73.1,1008.8,324.9,2.6,5.5,314.5,0.03,9.4,19.7,"17:26:16",1
"18/05/19","17:40",0.0,14.1,72.9,1008.8,327.3,2.7,4.9,340.7,0.02,9.4,19.6,"17:35:52",1
"18/05/19","17:50",0.0,14.0,73.8,1008.8,316.4,2.2,4.2,333.4,0.01,9.4,19.4,"17:42:48",1
"18/05/19","18:00",0.0,13.9,73.2,1009.3,330.6,2.5,4.1,328.1,0.00,9.2,19.3,"17:58:56",1
"18/05/19","18:10",0.0,13.9,73.5,1009.5,315.5,2.0,4.3,315.8,0.00,9.3,19.3,"18:08:16",1
"18/05/19","18:20",0.0,13.9,74.0,1009.3,318.4,1.8,4.7,322.5,0.00,9.4,19.4,"18:12:16",1
"18/05/19","18:30",0.0,13.7,73.8,1009.5,314.0,2.1,4.1,331.4,0.00,9.2,19.3,"18:25:36",1
"18/05/19","18:40",0.0,13.7,74.3,1009.5,323.4,2.7,6.5,328.6,0.00,9.3,19.1,"18:39:36",1
"18/05/19","18:50",0.0,13.5,75.5,1009.7,334.5,2.3,6.0,332.8,0.00,9.3,19.2,"18:40:58",1
"18/05/19","19:00",0.0,13.5,75.6,1009.5,333.4,1.7,2.9,328.6,0.00,9.3,19.1,"18:53:36",1
"18/05/19","19:10",0.0,13.4,76.7,1009.3,333.6,1.6,3.2,326.6,0.00,9.4,18.9,"19:00:02",1
"18/05/19","19:20",0.0,13.3,77.6,1009.7,323.6,2.0,3.9,341.6,0.00,9.5,18.8,"19:12:24",1
"18/05/19","19:30",0.0,13.1,78.5,1009.5,313.7,1.6,3.4,334.7,0.00,9.5,18.9,"19:24:56",1
"18/05/19","19:40",0.0,13.0,79.5,1009.5,315.4,1.6,2.9,346.0,0.00,9.6,18.6,"19:32:00",1
"18/05/19","19:50",0.0,12.9,80.8,1009.7,283.8,1.2,2.4,319.7,0.00,9.7,18.7,"19:49:52",1
"18/05/19","20:00",0.0,13.0,79.8,1009.7,324.1,2.1,4.3,334.0,0.00,9.6,18.6,"19:52:32",1
"18/05/19","20:10",0.0,13.1,78.7,1010.0,316.0,1.7,2.6,329.0,0.00,9.5,18.5,"20:05:36",1
"18/05/19","20:20",0.0,13.2,77.2,1010.0,325.4,2.2,5.5,327.5,0.00,9.3,18.6,"20:13:44",1
"18/05/19","20:30",0.0,13.2,77.1,1010.0,331.8,2.2,4.5,328.3,0.00,9.3,18.5,"20:23:44",1
"18/05/19","20:40",0.0,13.2,77.1,1010.0,324.2,2.1,3.1,326.7,0.00,9.3,18.4,"20:34:32",1
"18/05/19","20:50",0.0,13.2,76.0,1009.7,339.2,2.6,4.0,325.7,0.00,9.1,18.4,"20:46:08",1
"18/05/19","21:00",0.0,13.3,75.2,1010.2,336.1,2.3,5.9,334.5,0.00,9.0,18.4,"20:51:44",1
"18/05/19","21:10",0.0,13.1,75.1,1010.2,338.5,2.2,4.7,326.8,0.00,8.8,18.4,"21:01:44",1
"18/05/19","21:20",0.0,13.2,74.5,1010.0,345.0,2.6,5.2,332.5,0.00,8.8,18.3,"21:11:20",1
"18/05/19","21:30",0.0,13.2,73.8,1010.2,332.2,2.1,4.9,321.6,0.00,8.7,18.2,"21:23:52",1
"18/05/19","21:40",0.0,13.2,73.5,1010.4,336.0,1.8,3.9,343.4,0.00,8.6,17.9,"21:37:12",1
"18/05/19","21:50",0.0,13.2,74.2,1010.2,344.8,1.8,3.9,342.4,0.00,8.8,18.1,"21:49:36",1
"18/05/19","22:00",0.0,13.2,73.3,1010.4,343.4,2.0,4.7,303.3,0.00,8.6,18.0,"21:50:56",1
"18/05/19","22:10",0.0,13.3,72.8,1010.0,348.7,1.7,4.1,320.0,0.00,8.6,17.8,"22:07:52",1
"18/05/19","22:20",0.0,13.3,72.0,1010.2,337.6,2.6,10.3,349.1,0.00,8.4,17.8,"22:19:28",1
"18/05/19","22:30",0.0,13.5,71.2,1010.2,347.8,2.5,5.1,330.7,0.00,8.4,17.7,"22:29:28",1
"18/05/19","22:40",0.0,13.5,71.0,1010.2,357.3,1.7,4.0,313.2,0.00,8.4,17.6,"22:31:28",1
"18/05/19","22:50",0.0,13.5,71.5,1010.4,346.7,2.1,3.7,342.8,0.00,8.5,17.6,"22:40:40",1
"18/05/19","23:00",0.0,13.4,72.6,1010.2,337.1,1.8,5.0,337.1,0.00,8.6,17.8,"22:51:52",1
"18/05/19","23:10",0.0,13.4,72.8,1010.0,326.4,2.2,4.8,335.9,0.00,8.7,17.6,"23:09:04",1
"18/05/19","23:20",0.0,13.2,72.7,1010.2,318.1,1.8,6.0,333.7,0.00,8.5,17.5,"23:11:28",1
"18/05/19","23:30",0.0,13.0,73.3,1010.0,315.2,1.5,3.3,330.3,0.00,8.4,17.5,"23:20:40",1
"18/05/19","23:40",0.0,12.5,75.9,1010.0,286.7,1.1,2.0,309.6,0.00,8.4,17.6,"23:39:46",1
"18/05/19","23:50",0.0,12.5,76.0,1009.5,302.8,1.7,2.7,342.4,0.00,8.4,17.5,"23:48:18",1
"18/05/19","24:00",0.0,12.4,76.9,1010.0,315.0,1.8,2.8,318.6,0.00,8.5,17.4,"23:58:38",1
